Location: Sauerland
(51.1981°N, 7.8053°E)
Time: 11:25:39
(UTC+02:00)

ISS - Visible Passes

Search period start: 15 May 2021 00:00
Search period end: 25 May 2021 00:00
Orbit: 417 x 422 km, 51.6° (Epoch: 15 May)

Date Brightness Start Highest point End Pass type
(mag) Time Alt. Az. Time Alt. Az. Time Alt. Az.
15 May -3.9 00:27:13 10° WSW 00:30:35 76° SSE 00:33:57 10° E visible
15 May -3.8 02:04:03 10° W 02:07:26 83° N 02:10:50 10° E visible
15 May -3.6 03:40:54 10° W 03:44:10 47° SSW 03:47:26 10° SE visible
15 May -2.2 22:04:35 10° S 22:06:50 17° SE 22:09:05 10° E visible
15 May -3.8 23:39:50 10° WSW 23:43:10 60° SSE 23:46:30 10° E visible
16 May -3.7 01:16:35 10° W 01:19:58 80° N 01:23:21 10° E visible
16 May -3.8 02:53:25 10° W 02:56:46 62° SSW 03:00:07 10° ESE visible
16 May -2.2 04:30:47 10° W 04:33:08 18° SW 04:35:29 10° S visible
16 May -3.5 22:52:32 10° SW 22:55:46 45° SSE 22:59:01 10° E visible
17 May -3.8 00:29:06 10° W 00:32:29 83° N 00:35:53 10° E visible
17 May -3.9 02:05:58 10° W 02:09:20 77° SSW 02:12:43 10° ESE visible
17 May -2.7 03:43:01 10° W 03:45:50 25° SW 03:48:40 10° SSE visible
17 May -3.1 22:05:20 10° SW 22:08:24 33° SSE 22:11:29 10° E visible
17 May -3.9 23:41:38 10° WSW 23:45:01 89° SSE 23:48:24 10° E visible
18 May -3.9 01:18:30 10° W 01:21:53 89° WSW 01:22:53 43° E visible
18 May -1.3 02:55:25 10° W 02:55:46 12° W 02:55:46 12° W visible
18 May -3.9 22:54:12 10° WSW 22:57:33 76° SSE 23:00:56 10° E visible
19 May -3.8 00:31:01 10° W 00:34:25 83° N 00:36:27 22° E visible
19 May -2.1 02:07:52 10° W 02:09:22 23° W 02:09:22 23° W visible
19 May -3.7 22:06:48 10° WSW 22:10:07 60° SSE 22:13:28 10° E visible
19 May -3.7 23:43:32 10° W 23:46:56 80° N 23:50:16 10° E visible
20 May -3.5 01:20:24 10° W 01:23:11 52° WSW 01:23:11 52° WSW visible
20 May -3.7 22:56:03 10° W 22:59:25 83° N 23:02:49 10° E visible
21 May -3.9 00:32:55 10° W 00:36:17 77° SSW 00:37:05 48° ESE visible
21 May -1.1 02:09:58 10° W 02:10:01 10° W 02:10:01 10° W visible
21 May -3.8 22:08:34 10° W 22:11:57 89° SSE 22:15:20 10° E visible
21 May -3.8 23:45:25 10° W 23:48:49 90° SSE 23:51:02 20° E visible
22 May -2.1 01:22:20 10° W 01:23:58 23° WSW 01:23:58 23° WSW visible
22 May -3.7 22:57:57 10° W 23:01:19 83° N 23:04:42 10° E visible
23 May -3.4 00:34:47 10° W 00:37:56 46° SSW 00:37:56 46° SSW visible
23 May -3.6 22:10:26 10° W 22:13:49 80° N 22:17:12 10° E visible
23 May -3.8 23:47:17 10° W 23:50:37 62° SSW 23:51:57 32° SE visible
24 May -1.2 01:24:39 10° W 01:24:53 11° W 01:24:53 11° W visible
24 May -3.8 22:59:47 10° W 23:03:09 77° SSW 23:05:59 14° ESE visible
